Concord, CA

2:34 AM PDT on October 24, 2017 (GMT -0700)
Buchanan

Weather History for KCCR - October, 2012

Change the Weather History Date:

Sunday, October 14, 2012

  Actual Average Record
Temperature  
Mean Temperature 66 °F 65 °F  
Max Temperature 77 °F 78 °F 91 °F (2010)
Min Temperature 55 °F 52 °F 45 °F (2013)
Degree Days  
Heating Degree Days 0    
Month to date heating degree days 31  
Since 1 July heating degree days 43  
Cooling Degree Days 1    
Month to date cooling degree days 42  
Year to date cooling degree days 768  
Growing Degree Days 16 (Base 50)    
Moisture  
Dew Point 55 °F    
Average Humidity 74    
Maximum Humidity 100    
Minimum Humidity 47    
Precipitation  
Precipitation 0.00 in - 0.36 in (2016)
Month to date precipitation 0.03  
Year to date precipitation 9.70  
Since 1 July precipitation 0.03  
Sea Level Pressure  
Sea Level Pressure 30.14 in    
Wind  
Wind Speed 5 mph (WSW)    
Max Wind Speed 12 mph    
Max Gust Speed 15 mph    
Visibility 7 miles    
Events Fog    
T = Trace of Precipitation, MM = Missing Value Source: NWS Daily Summary

Daily Weather History Graph

Daily Weather History Graph

Search for Another Location

Airport or City:

Trip Planner

Search our weather history database for the weather conditions in past years. The results will help you decide how hot, cold, wet, or windy it might be!

Date:

Astronomy

Oct. 14, 2012 Rise Set
Actual Time 7:16 AM PDT 6:31 PM PDT
Civil Twilight 6:49 AM PDT 6:57 PM PDT
Nautical Twilight 6:19 AM PDT 7:28 PM PDT
Astronomical Twilight 5:48 AM PDT 7:58 PM PDT
Moon 6:21 AM PDT (10/14) 5:54 PM PDT (10/14)
Length of Visible Light 12h 07m
Length of Day
11h 14m
Waning Crescent, 1% of the Moon is Illuminated
Oct 14
Waning Crescent
Oct 15
New
Oct 21
First Quarter
Oct 29
Full
Nov 6
Last Quarter

Hourly Weather History & Observations

Time (PDT) Temp. Dew Point Humidity Pressure Visibility Wind Dir Wind Speed Gust Speed Precip Events Conditions
12:53 AM 60.1 °F 54.0 °F 80% 30.14 in 10.0 mi South 5.8 mph - N/A   Clear
1:53 AM 59.0 °F 54.0 °F 83% 30.15 in 10.0 mi South 5.8 mph - N/A   Clear
2:53 AM 57.9 °F 55.0 °F 90% 30.14 in 10.0 mi South 6.9 mph - N/A   Clear
3:53 AM 57.9 °F 55.0 °F 90% 30.13 in 10.0 mi SSW 4.6 mph - N/A   Clear
4:53 AM 55.9 °F 54.0 °F 93% 30.14 in 10.0 mi Calm Calm - N/A   Clear
5:25 AM 55.4 °F 53.6 °F 94% 30.18 in 9.0 mi Calm Calm - N/A   Scattered Clouds
5:36 AM 55.4 °F 53.6 °F 94% 30.19 in 6.0 mi Calm Calm - N/A   Mostly Cloudy
5:53 AM 55.9 °F 54.0 °F 93% 30.15 in 9.0 mi Calm Calm - N/A   Overcast
6:08 AM 57.2 °F 55.4 °F 94% 30.19 in 1.8 mi Calm Calm - N/A   Overcast
6:19 AM 55.4 °F 55.4 °F 100% 30.19 in 2.5 mi SE 4.6 mph - N/A   Overcast
6:28 AM 55.4 °F 55.4 °F 100% 30.19 in 8.0 mi SSE 3.5 mph - N/A   Overcast
6:53 AM 55.9 °F 55.0 °F 97% 30.15 in 3.0 mi SE 3.5 mph - N/A   Overcast
6:59 AM 55.4 °F 55.4 °F 100% 30.19 in 1.8 mi Calm Calm - N/A   Overcast
7:03 AM 55.4 °F 55.4 °F 100% 30.20 in 3.0 mi Calm Calm - N/A   Overcast
7:21 AM 55.4 °F 55.4 °F 100% 30.20 in 0.5 mi Calm Calm - N/A Fog Fog
7:53 AM 55.0 °F 55.0 °F 100% 30.16 in 0.5 mi Calm Calm - N/A Fog Fog
8:14 AM 55.4 °F 55.4 °F 100% 30.21 in 1.0 mi Calm Calm - N/A Fog Fog
8:21 AM 55.4 °F 55.4 °F 100% 30.21 in 0.5 mi Calm Calm - N/A Fog Fog
8:48 AM 55.4 °F 55.4 °F 100% 30.21 in 1.0 mi Calm Calm - N/A   Overcast
8:53 AM 55.9 °F 55.9 °F 100% 30.17 in 1.0 mi Calm Calm - N/A   Overcast
8:55 AM 55.4 °F 55.4 °F 100% 30.21 in 3.0 mi Calm Calm - N/A   Overcast
9:03 AM 55.4 °F 55.4 °F 100% 30.21 in 1.0 mi South 3.5 mph - N/A   Overcast
9:53 AM 57.0 °F 55.9 °F 96% 30.17 in 1.0 mi Calm Calm - N/A   Overcast
10:00 AM 57.2 °F 55.4 °F 94% 30.21 in 7.0 mi Calm Calm - N/A   Mostly Cloudy
10:13 AM 60.8 °F 55.4 °F 82% 30.21 in 10.0 mi Calm Calm - N/A   Scattered Clouds
10:53 AM 64.0 °F 57.0 °F 78% 30.17 in 10.0 mi NNW 5.8 mph - N/A   Scattered Clouds
11:53 AM 66.9 °F 57.0 °F 70% 30.16 in 10.0 mi NNW 9.2 mph - N/A   Clear
1:53 PM 73.9 °F 55.9 °F 53% 30.10 in 10.0 mi NW 6.9 mph - N/A   Clear
2:53 PM 75.0 °F 55.9 °F 51% 30.07 in 10.0 mi NNW 8.1 mph - N/A   Clear
3:53 PM 77.0 °F 55.0 °F 47% 30.05 in 10.0 mi WNW 6.9 mph - N/A   Clear
4:53 PM 77.0 °F 55.0 °F 47% 30.04 in 10.0 mi NW 9.2 mph - N/A   Clear
5:53 PM 73.9 °F 55.9 °F 53% 30.02 in 10.0 mi WNW 9.2 mph - N/A   Clear
6:53 PM 71.1 °F 57.0 °F 61% 30.03 in 10.0 mi WNW 8.1 mph - N/A   Clear
7:53 PM 68.0 °F 55.0 °F 63% 30.03 in 10.0 mi West 6.9 mph - N/A   Clear
8:53 PM 64.9 °F 55.9 °F 73% 30.05 in 10.0 mi WNW 9.2 mph - N/A   Clear
9:53 PM 62.1 °F 55.9 °F 80% 30.04 in 10.0 mi Calm Calm - N/A   Clear
10:53 PM 60.1 °F 55.9 °F 86% 30.04 in 10.0 mi Calm Calm - N/A   Clear
11:53 PM 57.9 °F 55.0 °F 90% 30.03 in 10.0 mi Calm Calm - N/A   Clear